Location: Home
(42.5358°N, 72.7383°W)
Time: 14:46:07
(UTC-05:00)

Explorer 11/Cluster Stage 4 - Pass Details

Date: 18 December 2025
Orbit: 463 x 1179 km, 28.8° (Epoch: 21 January)

Event Time Altitude Azimuth Distance (km) Brightness Sun altitude
Rises 17:45:38 0° 243° (WSW) 4,039 12.0 -15.2°
Reaches altitude 10° 17:48:56 10° 232° (SW) 3,092 10.8 -15.8°
Maximum altitude 17:55:17 28° 178° (S) 2,020 8.8 -16.9°
Enters shadow 18:01:13 10° 124° (SE) 2,904 9.1 -17.9°
